Time,TemperatureF,DewpointF,PressureIn,WindDirection,WindDirectionDegrees,WindSpeedMPH,WindSpeedGustMPH,Humidity,HourlyPrecipIn,Conditions,Clouds,dailyrainin,SoftwareType,DateUTC
2013-02-12 00:00:00,3.0,-99.9,-100.00,West,259,22.0,33.0,-999,-99.99,,,-99.99,,2013-02-12 07:00:00,
2013-02-12 00:52:00,3.0,-99.9,-100.00,West,259,22.0,33.0,-999,-99.99,,,-99.99,,2013-02-12 07:52:00,
2013-02-12 01:00:00,3.0,-99.9,-100.00,WSW,241,29.0,37.0,-999,-99.99,,,-99.99,,2013-02-12 08:00:00,
2013-02-12 01:52:00,3.0,-99.9,-100.00,WSW,241,29.0,37.0,-999,-99.99,,,-99.99,,2013-02-12 08:52:00,
2013-02-12 02:00:00,3.0,-99.9,-100.00,WSW,239,26.0,40.0,-999,-99.99,,,-99.99,,2013-02-12 09:00:00,
2013-02-12 02:52:00,3.0,-99.9,-100.00,WSW,239,26.0,40.0,-999,-99.99,,,-99.99,,2013-02-12 09:52:00,
2013-02-12 03:00:00,3.0,-99.9,-100.00,WSW,257,31.0,36.0,-999,-99.99,,,-99.99,,2013-02-12 10:00:00,
2013-02-12 03:52:00,3.0,-99.9,-100.00,WSW,257,31.0,36.0,-999,-99.99,,,-99.99,,2013-02-12 10:52:00,
2013-02-12 04:53:00,1.0,-99.9,-100.00,WSW,245,32.0,40.0,-999,-99.99,,,-99.99,,2013-02-12 11:53:00,
2013-02-12 05:53:00,1.0,-99.9,-100.00,SW,234,28.0,40.0,-999,-99.99,,,-99.99,,2013-02-12 12:53:00,
2013-02-12 06:52:00,1.0,-99.9,-100.00,WSW,244,31.0,36.0,-999,-99.99,,,-99.99,,2013-02-12 13:52:00,
2013-02-12 07:00:00,3.0,-99.9,-100.00,WSW,253,35.0,38.0,-999,-99.99,,,-99.99,,2013-02-12 14:00:00,
2013-02-12 07:52:00,3.0,-99.9,-100.00,WSW,253,35.0,38.0,-999,-99.99,,,-99.99,,2013-02-12 14:52:00,
2013-02-12 08:00:00,5.0,-99.9,-100.00,WSW,255,19.0,37.0,-999,-99.99,,,-99.99,,2013-02-12 15:00:00,
2013-02-12 08:52:00,5.0,-99.9,-100.00,WSW,255,19.0,37.0,-999,-99.99,,,-99.99,,2013-02-12 15:52:00,
2013-02-12 09:00:00,7.0,-99.9,-100.00,WSW,241,31.0,37.0,-999,-99.99,,,-99.99,,2013-02-12 16:00:00,
2013-02-12 09:52:00,7.0,-99.9,-100.00,WSW,241,31.0,37.0,-999,-99.99,,,-99.99,,2013-02-12 16:52:00,
2013-02-12 10:00:00,10.0,-99.9,-100.00,WSW,244,27.0,39.0,-999,-99.99,,,-99.99,,2013-02-12 17:00:00,
2013-02-12 10:52:00,10.0,-99.9,-100.00,WSW,244,27.0,39.0,-999,-99.99,,,-99.99,,2013-02-12 17:52:00,
2013-02-12 11:00:00,12.0,-99.9,-100.00,WSW,244,29.0,42.0,-999,-99.99,,,-99.99,,2013-02-12 18:00:00,
2013-02-12 11:52:00,12.0,-99.9,-100.00,WSW,244,29.0,42.0,-999,-99.99,,,-99.99,,2013-02-12 18:52:00,
2013-02-12 12:00:00,14.0,-99.9,-100.00,SW,229,26.0,38.0,-999,-99.99,,,-99.99,,2013-02-12 19:00:00,
2013-02-12 12:52:00,14.0,-99.9,-100.00,SW,229,26.0,38.0,-999,-99.99,,,-99.99,,2013-02-12 19:52:00,
2013-02-12 13:00:00,18.0,-99.9,-100.00,WSW,246,22.0,32.0,-999,-99.99,,,-99.99,,2013-02-12 20:00:00,
2013-02-12 13:52:00,18.0,-99.9,-100.00,WSW,246,22.0,32.0,-999,-99.99,,,-99.99,,2013-02-12 20:52:00,
2013-02-12 14:00:00,18.0,-99.9,-100.00,WSW,254,25.0,34.0,-999,-99.99,,,-99.99,,2013-02-12 21:00:00,
2013-02-12 14:52:00,18.0,-99.9,-100.00,WSW,254,25.0,34.0,-999,-99.99,,,-99.99,,2013-02-12 21:52:00,
2013-02-12 15:00:00,18.0,-99.9,-100.00,SW,236,27.0,32.0,-999,-99.99,,,-99.99,,2013-02-12 22:00:00,
2013-02-12 15:52:00,18.0,-99.9,-100.00,SW,236,27.0,32.0,-999,-99.99,,,-99.99,,2013-02-12 22:52:00,
2013-02-12 16:00:00,18.0,-99.9,-100.00,WSW,241,27.0,37.0,-999,-99.99,,,-99.99,,2013-02-12 23:00:00,
2013-02-12 16:32:00,18.0,-99.9,-100.00,WSW,241,27.0,37.0,-999,-99.99,,,-99.99,,2013-02-12 23:32:00,
2013-02-12 16:42:00,18.0,-99.9,-100.00,WSW,241,27.0,37.0,-999,-99.99,,,-99.99,,2013-02-12 23:42:00,
2013-02-12 16:52:00,18.0,-99.9,-100.00,WSW,241,27.0,37.0,-999,-99.99,,,-99.99,,2013-02-12 23:52:00,
2013-02-12 17:00:00,16.0,-99.9,-100.00,WSW,240,24.0,47.0,-999,-99.99,,,-99.99,,2013-02-13 00:00:00,
2013-02-12 17:32:00,16.0,-99.9,-100.00,WSW,240,24.0,47.0,-999,-99.99,,,-99.99,,2013-02-13 00:32:00,
2013-02-12 17:42:00,16.0,-99.9,-100.00,WSW,240,24.0,47.0,-999,-99.99,,,-99.99,,2013-02-13 00:42:00,
2013-02-12 17:52:00,16.0,-99.9,-100.00,WSW,240,24.0,47.0,-999,-99.99,,,-99.99,,2013-02-13 00:52:00,
2013-02-12 18:00:00,14.0,-99.9,-100.00,WSW,239,21.0,32.0,-999,-99.99,,,-99.99,,2013-02-13 01:00:00,
2013-02-12 18:52:00,14.0,-99.9,-100.00,WSW,239,21.0,32.0,-999,-99.99,,,-99.99,,2013-02-13 01:52:00,
2013-02-12 19:00:00,12.0,-99.9,-100.00,SW,236,32.0,40.0,-999,-99.99,,,-99.99,,2013-02-13 02:00:00,
2013-02-12 19:52:00,12.0,-99.9,-100.00,SW,236,32.0,40.0,-999,-99.99,,,-99.99,,2013-02-13 02:52:00,
2013-02-12 20:52:00,10.0,-99.9,-100.00,SW,232,34.0,38.0,-999,-99.99,,,-99.99,,2013-02-13 03:52:00,
2013-02-12 21:00:00,10.0,-99.9,-100.00,SW,234,25.0,27.0,-999,-99.99,,,-99.99,,2013-02-13 04:00:00,
2013-02-12 21:32:00,10.0,-99.9,-100.00,SW,234,25.0,27.0,-999,-99.99,,,-99.99,,2013-02-13 04:32:00,
2013-02-12 21:42:00,10.0,-99.9,-100.00,SW,234,25.0,27.0,-999,-99.99,,,-99.99,,2013-02-13 04:42:00,
2013-02-12 21:52:00,10.0,-99.9,-100.00,SW,234,25.0,27.0,-999,-99.99,,,-99.99,,2013-02-13 04:52:00,
2013-02-12 22:00:00,10.0,-99.9,-100.00,SW,227,18.0,29.0,-999,-99.99,,,-99.99,,2013-02-13 05:00:00,
2013-02-12 22:52:00,10.0,-99.9,-100.00,SW,227,18.0,29.0,-999,-99.99,,,-99.99,,2013-02-13 05:52:00,
2013-02-12 23:00:00,10.0,-99.9,-100.00,WSW,247,36.0,44.0,-999,-99.99,,,-99.99,,2013-02-13 06:00:00,
2013-02-12 23:52:00,10.0,-99.9,-100.00,WSW,247,36.0,44.0,-999,-99.99,,,-99.99,,2013-02-13 06:52:00,